Location: ????? ??????
(37.8317°N, 23.8750°E)
Time: 12:57:32
(UTC+00:00)

YAOGAN 1 - Pass Details

Date: 20 January 2021
Orbit: 618 x 620 km, 97.9° (Epoch: 03 March)

Event Time Altitude Azimuth Distance (km) Brightness Sun altitude
Rises 16:49:27 0° 154° (SSE) 2,882 5.9 -14.7°
Reaches altitude 10° 16:51:40 10° 149° (SSE) 1,980 5.0 -15.1°
Maximum altitude 16:55:51 51° 74° (ENE) 781 2.6 -15.9°
Drops below altitude 10° 17:00:03 10° 358° (N) 1,995 5.0 -16.8°
Sets 17:02:17 0° 354° (N) 2,905 5.9 -17.2°
